Hourly Data Report for December 01, 2017

CARBERRY CS
MANITOBA

49°54'20.900" N
99°21'26.800" W
383.50 m
5010547
71170
WZE

Download Data

Hourly Data (December 2017)
Hourly Data Report for December 1, 2017
TIME
LST
Temp Definition
°C
Dew Point Definition
°C
Rel Hum Definition
%
Precip. Amount Definition
mm

Wind Dir Definition
10's deg

Wind Spd Definition
km/h
Visibility Definition
km
Stn Press Definition
kPa
Hmdx Definition


Wind Chill Definition


Weather Definition


00:00 -1.8 -4.7 80 0.0 25 16   96.51   -7 LegendNANA
01:00 -2.8 -5.1 84 0.0 25 13   96.51   -7 LegendNANA
02:00 -3.4 -5.5 85 0.0 23 11   96.53   -8 LegendNANA
03:00 -4.6 -6.2 89 0.0 23 11   96.55   -9 LegendNANA
04:00 -5.1 -6.9 87 0.0 23 9   96.59   -9 LegendNANA
05:00 -5.1 -6.7 89 0.0 25 10   96.59   -9 LegendNANA
06:00 -5.8 -7.3 89 0.0 26 9   96.59   -10 LegendNANA
07:00 -5.2 -6.8 88 0.0 23 8   96.60   -9 LegendNANA
08:00 -6.6 -8.0 90 0.0 30 2   96.66   -8 LegendNANA
09:00 -6.2 -7.6 90 0.0 25 8   96.68   -10 LegendNANA
10:00 -4.7 -7.0 84 0.0 22 4   96.70   -6 LegendNANA
11:00 -1.7 -5.1 78 0.0 22 7   96.72   -4 LegendNANA
12:00 -0.9 -5.1 73 0.0 23 7   96.69   -3 LegendNANA
13:00 0.4 -3.7 74 0.0 28 6   96.63     LegendNANA
14:00 1.6 -4.1 66 0.0 27 8   96.59     LegendNANA
15:00 1.6 -3.3 70 0.0 27 8   96.59     LegendNANA
16:00 1.2 -3.5 71 0.0 25 7   96.66     LegendNANA
17:00 0.2 -3.8 74 0.0 23 7   96.65     LegendNANA
18:00 -0.1 -3.4 79 0.0 23 7   96.72   -3 LegendNANA
19:00 -1.5 -3.9 83 0.0 24 10   96.76   -5 LegendNANA
20:00 -2.3 -4.4 85 0.0 24 14   96.73   -7 LegendNANA
21:00 -3.9 -5.3 90 0.0 26 10   96.74   -8 LegendNANA
22:00 -4.6 -6.3 88 0.0 26 14   96.75   -10 LegendNANA
23:00 -6.1 -7.2 91 0.0 26 13   96.72   -11 LegendNANA

Notes on Data Quality.

Legend

  • E = Estimated
  • M = Missing
  • NA = Not Available*
  • [empty] = Indicates an unobserved value
Date modified: